Regional Weather Roundup
Issued by NWS Green Bay, WI

Home | Current Version | Previous Version | Text Only | Print | Product List | Glossary On
Versions: 1 2 3 4 5 6 7 8 9 10 11 12 13 14 15 16 17 18 19 20 21 22 23 24 25 26 27 28 29 30 31 32 33 34 35 36 37 38 39 40 41 42 43 44 45 46 47 48 49 50
000
ASUS43 KGRB 241859
RWRGRB

NORTH-CENTRAL AND NORTHEAST WISCONSIN REGIONAL WEATHER ROUNDUP
NATIONAL WEATHER SERVICE GREEN BAY WI
100 PM CST WED DEC 24 2014

WIZ005-009-010>012-018-019-242000-
NORTH CENTRAL WISCONSIN

CITY           SKY/WX    TMP DP  RH WIND       PRES   REMARKS
IRONWOOD       CLOUDY    32  30  93 N6        29.55F
MANITOWISH WTR NOT AVBL
ARBOR VITAE    NOT AVBL
EAGLE RIVER    NOT AVBL
LAND O LAKES   NOT AVBL
RHINELANDER    CLOUDY    31  28  89 NW6       29.53F
PHILLIPS       NOT AVBL
ANTIGO         NOT AVBL
TOMAHAWK       NOT AVBL
MERRILL        NOT AVBL
$$

WIZ013-073-242000-
NORTHEAST WISCONSIN

CITY           SKY/WX    TMP DP  RH WIND       PRES   REMARKS
IRON MOUNTAIN  CLOUDY    34  30  85 N7        29.51F
MARINETTE      CLOUDY    34  34 100 N5        29.51F
$$

WIZ017-030-035>037-045-242000-
CENTRAL WISCONSIN

CITY           SKY/WX    TMP DP  RH WIND       PRES   REMARKS
MEDFORD        NOT AVBL
WAUSAU         CLOUDY    34  31  88 N8        29.52F
MOSINEE        CLOUDY    34  34 100 N8        29.54F
MARSHFIELD     CLOUDY    35  30  82 N12       29.54F
WISC RAPIDS    CLOUDY    35  31  85 N7        29.55F
STEVENS POINT  NOT AVBL
WAUPACA        NOT AVBL
SHAWANO        NOT AVBL
CLINTONVILLE   NOT AVBL
$$

WIZ038-039-048-051-242000-
FOX VALLEY

CITY           SKY/WX    TMP DP  RH WIND       PRES   REMARKS
NWS GREEN BAY  CLOUDY    35  34  96 NW6       29.52F FOG
APPLETON       NOT AVBL
OSHKOSH        FOG       35  33  92 NW6       29.51F VSB 3/4
FOND DU LAC    FOG       36  34  92 N7        29.51F VSB 1/2
$$

WIZ022-050-052-242000-
EAST CENTRAL WISCONSIN

CITY           SKY/WX    TMP DP  RH WIND       PRES   REMARKS
STURGEON BAY   CLOUDY    36  32  87 N9        29.52F VSB 3/4
MANITOWOC      NOT AVBL
SHEBOYGAN      LGT RAIN  38  35  89 NW9       29.49F
$$

LMZ563-521-522-541>543-242000-
LAKESHORE

STATION/POSITION TIME  TEMP    WIND        PRES    VSBY  WAVE
                       AIR SEA DIR/SP/G                  HT/PER
                 (UTC) (F)     (DEG/KT/KT) (MB)    (MI)  (FT/S)
SHEBOYGAN LKSHOR 1800   38 36  350/  5/  6 1000.4F
KEWAUNEE LKSHORE 1800   37     320/  2/  6  999.1F
ALGOMA MARINA    1800          330/  8/  9   N/A
NORTHPORT PIER   1800   35     350/  6/  8 1000.3F
SISTER BAY LKSHO 1800           10/  5/  6   N/A
CHAMBERS ISLAND  1800   35     320/  6/  7 1000.7F
MENOMINEE LKSHOR 1800   34     330/  6/  7 1001.0F
$$


USA.gov is the U.S. government's official web portal to all federal, state and local government web resources and services.